Metropolitan Oakland International Airport
KOAK : now visible

Airfield :











YOU CAN JOIN US ON...

 
LOGIN :

Register | Disclaimer

   EN    FR    IT 

 









Legend :    VFR   Marginal VFR   IFR   Intensive IFR   Very Intensive IFR
Visi :
Ceiling :
>= 8 km
>= 3000ft
5 to 8 km
1000 to 3000 ft
1500m to 5 km
500 to 1000 ft
800 to 1500m
200 to 500 ft
< 800m
< 200 ft
Symbols :   Thunderstorms  Fog  Heavy snow  Heavy precipitations  Wind > 20 kt






- Airport Elevation : 9 ft
- IATA code : OAK


KOAK - Metropolitan Oakland International

CURRENT METAR :
  • 200253Z 32005KT 10SM SCT200 13/09 A3008 RMK AO2 SLP185 T01330089 53001

EXPIRED METARs :
  • 200153Z 30008KT 10SM SCT200 15/09 A3007 RMK AO2 SLP184 T01500094

TAF KOAK
Valid from the 20 at 00:00 until the 21 at 06:00 UTC


192339Z 2000/2106 30007KT P6SM SCT200
FM200700 06004KT P6SM BKN180
FM202100 31006KT P6SM SCT200
FM210400 VRB03KT P6SM SCT200



MET'MAP, your aeronautical weather chart ! - Copyright ORBIFLY December 2007 - Disclaimer

ORBIFLY MET'MAP TEAM :

Programming & Development : Alexandra Zaïnal
Concept & original design : Baudouin d'Aumeries
Assistance for programming : Marc-Olivier Méhu
Technical & hardware support : Manuel Goepfert

Contact : metmap@orbifly.com




SOURCES & CREDITS :

   NOAA       Earth
Advisory